TimeCST,TemperatureF,Dew PointF,Humidity,Sea Level PressureIn,VisibilityMPH,Wind Direction,Wind SpeedMPH,Gust SpeedMPH,PrecipitationIn,Events,Conditions,WindDirDegrees,DateUTC
12:15 AM,40.1,37.8,91,29.91,10.0,SSW,10.4,-,N/A,,Clear,210,2013-02-14 06:15:00
12:35 AM,39.9,37.8,92,29.91,10.0,SSW,11.5,-,N/A,,Clear,210,2013-02-14 06:35:00
12:55 AM,39.4,37.6,93,29.91,10.0,SSW,10.4,-,N/A,,Clear,210,2013-02-14 06:55:00
1:15 AM,39.4,37.6,93,29.91,10.0,SSW,11.5,-,N/A,,Clear,210,2013-02-14 07:15:00
1:35 AM,39.4,37.6,93,29.90,10.0,SSW,10.4,-,N/A,,Clear,200,2013-02-14 07:35:00
1:55 AM,39.2,37.4,93,29.91,10.0,SSW,8.1,-,N/A,,Clear,200,2013-02-14 07:55:00
2:15 AM,38.5,37.2,95,29.90,10.0,South,10.4,-,N/A,,Clear,190,2013-02-14 08:15:00
2:35 AM,38.3,37.2,96,29.90,10.0,South,11.5,-,N/A,,Clear,190,2013-02-14 08:35:00
2:55 AM,36.5,35.6,97,29.89,5.0,South,9.2,-,N/A,,Clear,180,2013-02-14 08:55:00
3:15 AM,36.1,35.6,98,29.89,7.0,South,6.9,-,N/A,,Clear,170,2013-02-14 09:15:00
3:35 AM,36.1,35.6,98,29.89,5.0,South,8.1,-,N/A,,Clear,180,2013-02-14 09:35:00
4:15 AM,35.6,35.2,99,29.89,5.0,South,6.9,-,N/A,,Clear,180,2013-02-14 10:15:00
4:35 AM,36.0,35.6,99,29.88,5.0,South,8.1,-,N/A,,Clear,180,2013-02-14 10:35:00
4:55 AM,36.0,35.6,99,29.89,5.0,South,6.9,-,N/A,,Clear,180,2013-02-14 10:55:00
5:15 AM,35.6,35.1,98,29.89,5.0,South,6.9,-,N/A,,Clear,180,2013-02-14 11:15:00
5:35 AM,35.8,35.4,99,29.88,5.0,South,8.1,-,N/A,,Clear,180,2013-02-14 11:35:00
6:15 AM,36.1,35.6,98,29.89,7.0,SSW,10.4,-,N/A,,Clear,200,2013-02-14 12:15:00
6:35 AM,37.2,36.0,95,29.89,7.0,South,10.4,-,N/A,,Clear,190,2013-02-14 12:35:00
6:55 AM,36.9,35.8,96,29.89,5.0,South,9.2,-,N/A,,Clear,190,2013-02-14 12:55:00
7:15 AM,37.6,36.1,95,29.89,5.0,South,9.2,-,N/A,,Clear,190,2013-02-14 13:15:00
7:35 AM,38.8,36.9,93,29.89,7.0,SSW,10.4,-,N/A,,Clear,200,2013-02-14 13:35:00
7:55 AM,40.1,37.6,91,29.90,7.0,SSW,9.2,-,N/A,,Clear,200,2013-02-14 13:55:00
8:15 AM,41.0,38.1,89,29.90,7.0,SSW,10.4,-,N/A,,Clear,200,2013-02-14 14:15:00
8:35 AM,42.3,38.1,85,29.90,7.0,SSW,9.2,-,N/A,,Clear,210,2013-02-14 14:35:00
8:55 AM,43.2,38.5,84,29.90,10.0,SSW,10.4,-,N/A,,Clear,210,2013-02-14 14:55:00
9:15 AM,44.6,39.0,81,29.91,10.0,SW,12.7,17.3,N/A,,Clear,230,2013-02-14 15:15:00
9:35 AM,46.0,38.5,75,29.92,10.0,SW,12.7,-,N/A,,Clear,220,2013-02-14 15:35:00
9:55 AM,47.3,38.5,71,29.92,10.0,WSW,12.7,-,N/A,,Clear,240,2013-02-14 15:55:00
10:15 AM,48.4,38.7,69,29.92,10.0,SW,13.8,-,N/A,,Clear,220,2013-02-14 16:15:00
10:35 AM,49.6,39.4,68,29.92,10.0,SW,13.8,19.6,N/A,,Clear,230,2013-02-14 16:35:00
10:55 AM,50.5,38.5,63,29.92,10.0,WSW,11.5,-,N/A,,Clear,240,2013-02-14 16:55:00
11:15 AM,51.8,38.1,60,29.92,10.0,SW,13.8,18.4,N/A,,Clear,230,2013-02-14 17:15:00
11:35 AM,53.6,38.3,56,29.92,10.0,SW,10.4,17.3,N/A,,Mostly Cloudy,220,2013-02-14 17:35:00
11:55 AM,54.3,38.7,55,29.92,10.0,WSW,10.4,-,N/A,,Scattered Clouds,240,2013-02-14 17:55:00
12:15 PM,54.9,38.1,53,29.92,10.0,West,13.8,17.3,N/A,,Clear,260,2013-02-14 18:15:00
12:35 PM,55.9,38.1,51,29.91,10.0,SW,13.8,19.6,N/A,,Clear,230,2013-02-14 18:35:00
12:55 PM,56.1,38.5,52,29.90,10.0,SW,10.4,-,N/A,,Clear,230,2013-02-14 18:55:00
1:15 PM,57.2,39.0,51,29.90,10.0,WSW,11.5,19.6,N/A,,Clear,240,2013-02-14 19:15:00
1:35 PM,57.7,38.5,49,29.90,10.0,West,12.7,18.4,N/A,,Clear,260,2013-02-14 19:35:00
1:55 PM,58.1,37.6,46,29.90,10.0,West,16.1,20.7,N/A,,Clear,260,2013-02-14 19:55:00
2:15 PM,58.6,37.8,46,29.91,10.0,West,18.4,21.9,N/A,,Clear,260,2013-02-14 20:15:00
2:35 PM,57.9,37.9,47,29.91,10.0,WNW,15.0,-,N/A,,Clear,300,2013-02-14 20:35:00
2:55 PM,57.6,37.9,48,29.91,10.0,WNW,15.0,-,N/A,,Clear,290,2013-02-14 20:55:00
3:15 PM,57.4,38.3,49,29.92,10.0,WNW,13.8,-,N/A,,Clear,290,2013-02-14 21:15:00
3:35 PM,56.7,36.5,47,29.92,10.0,West,17.3,-,N/A,,Clear,270,2013-02-14 21:35:00
3:55 PM,56.8,36.5,47,29.93,10.0,West,11.5,-,N/A,,Clear,280,2013-02-14 21:55:00
4:15 PM,56.5,34.2,43,29.93,10.0,West,15.0,21.9,N/A,,Clear,280,2013-02-14 22:15:00
4:35 PM,55.4,34.2,45,29.94,10.0,West,12.7,-,N/A,,Clear,270,2013-02-14 22:35:00
4:55 PM,53.2,36.7,53,29.94,10.0,WNW,8.1,-,N/A,,Clear,300,2013-02-14 22:55:00
5:15 PM,51.1,37.2,59,29.95,10.0,WNW,5.8,-,N/A,,Clear,300,2013-02-14 23:15:00
5:35 PM,49.5,37.4,63,29.96,10.0,WNW,8.1,-,N/A,,Clear,290,2013-02-14 23:35:00
5:55 PM,49.1,37.0,63,29.96,10.0,West,6.9,-,N/A,,Clear,280,2013-02-14 23:55:00
6:15 PM,48.4,36.7,64,29.97,10.0,West,5.8,-,N/A,,Clear,280,2013-02-15 00:15:00
6:35 PM,48.6,35.6,61,29.98,10.0,WNW,4.6,-,N/A,,Clear,290,2013-02-15 00:35:00
6:55 PM,48.0,35.1,61,29.98,10.0,NW,4.6,-,N/A,,Clear,310,2013-02-15 00:55:00
7:15 PM,47.3,34.9,62,29.99,10.0,NW,4.6,-,N/A,,Clear,310,2013-02-15 01:15:00
7:35 PM,47.1,35.6,64,30.00,10.0,WNW,4.6,-,N/A,,Clear,290,2013-02-15 01:35:00
7:55 PM,43.7,35.8,74,30.00,10.0,NW,6.9,-,N/A,,Clear,310,2013-02-15 01:55:00
8:15 PM,43.5,36.3,76,30.00,10.0,WNW,5.8,-,N/A,,Clear,290,2013-02-15 02:15:00
8:35 PM,46.4,35.6,66,30.02,10.0,NW,5.8,-,N/A,,Clear,320,2013-02-15 02:35:00
8:55 PM,45.9,35.4,67,30.02,10.0,NNW,8.1,-,N/A,,Clear,340,2013-02-15 02:55:00
9:15 PM,44.4,35.8,72,30.02,10.0,North,6.9,-,N/A,,Clear,360,2013-02-15 03:15:00
9:35 PM,44.4,36.1,73,30.03,10.0,North,8.1,-,N/A,,Clear,360,2013-02-15 03:35:00
9:55 PM,43.9,36.5,75,30.04,10.0,North,6.9,-,N/A,,Clear,360,2013-02-15 03:55:00
10:15 PM,42.8,36.5,78,30.05,10.0,North,9.2,-,N/A,,Clear,10,2013-02-15 04:15:00
10:35 PM,42.8,36.1,77,30.04,10.0,NNE,8.1,-,N/A,,Clear,20,2013-02-15 04:35:00
10:55 PM,41.9,35.8,79,30.04,10.0,NNE,6.9,-,N/A,,Clear,30,2013-02-15 04:55:00
11:15 PM,40.6,35.8,83,30.04,10.0,North,4.6,-,N/A,,Scattered Clouds,360,2013-02-15 05:15:00
11:35 PM,39.9,35.1,83,30.05,10.0,North,3.5,-,N/A,,Scattered Clouds,360,2013-02-15 05:35:00
11:55 PM,39.4,35.6,86,30.04,10.0,Calm,Calm,-,N/A,,Clear,0,2013-02-15 05:55:00